Regional Weather Roundup
Issued by NWS

Home | Current Version | Previous Version | Graphics & Text | Print | Product List | Glossary On
Versions: 1 2 3 4 5 6 7 8 9 10 11 12 13 14 15 16 17 18 19 20 21 22 23 24 25 26 27 28 29 30 31 32 33 34 35 36 37 38 39 40 41 42 43 44 45 46 47 48 49 50
000
ASUS43 KBIS 250431
RWRND
NORTH DAKOTA REGIONAL WEATHER ROUNDUP
NATIONAL WEATHER SERVICE EASTERN NORTH DAKOTA/GRAND FORKS ND
1000 PM CST SAT FEB 24 2018

  NOTE: "FAIR" INDICATES FEW OR NO CLOUDS BELOW 12,000 FEET WITH NO
  SIGNIFICANT WEATHER AND/OR OBSTRUCTIONS TO VISIBILITY.

NDZ001>003-009>011-017-250500-
...NORTHWEST NORTH DAKOTA...

CITY           SKY/WX    TMP DP  RH WIND       PRES   REMARKS
WILLISTON      CLOUDY    19  15  84 W8        29.59R WCI   9
MINOT          CLOUDY    21  12  68 SW12      29.53F WCI   9
MINOT AFB      CLOUDY    18  12  79 W7          N/A  WCI   8
$$

NDZ018>021-031>035-040>046-250500-
...SOUTHWEST NORTH DAKOTA...

CITY           SKY/WX    TMP DP  RH WIND       PRES   REMARKS
BISMARCK       FAIR      12   7  80 W5        29.60S WCI   4
DICKINSON      FAIR      15   8  73 W17       29.55S WCI  -1
GARRISON         N/A     15   9  76 W12       29.55S WCI   2
HETTINGER      FAIR       7   2  80 W7        29.62S WCI  -5
$$

NDZ004>008-012>016-024-026-027-054-250500-
...NORTHEAST NORTH DAKOTA...

CITY           SKY/WX    TMP DP  RH WIND       PRES   REMARKS
GRAND FORKS    LGT SNOW  17  15  92 CALM      29.60F FOG
GRAND FORKS AF FAIR      16  12  86 CALM      29.60F BLWGSNOW
DEVILS LAKE    CLOUDY    16  14  92 S6        29.57F WCI   7
$$

NDZ022-023-025-028>030-036>039-047>053-250500-
...SOUTHEAST NORTH DAKOTA...

CITY           SKY/WX    TMP DP  RH WIND       PRES   REMARKS
JAMESTOWN      CLOUDY    15  12  88 SW6       29.56F WCI   6
FARGO          LGT SNOW  15  13  91 N13       29.59F FOG     WCI   1
WAHPETON       CLOUDY    18  14  86 NW8       29.58F WCI   7
$$



USA.gov is the U.S. government's official web portal to all federal, state and local government web resources and services.